EW7947 Weather Reports


Display with metric or nautical units.
time (UTC)temp
F
wind
direction
speed
MPH
gust
MPH
rain 1hr
in
rain 24hr
in
rain mn
in
humidity
%
barometer
mb
20260507014605 61 282 11.0 0.0 0.00 0.00 0.00 19 1014.4
20260507013103 62 323 11.0 0.0 0.00 0.00 0.00 19 1014.3
20260507011558 62 318 16.0 0.0 0.00 0.00 0.00 18 1014.2
20260507010055 63 310 14.0 0.0 0.00 0.00 0.00 18 1014.2
20260507004554 63 333 16.0 0.0 0.00 0.00 0.00 18 1013.9
20260507003056 63 336 12.0 0.0 0.00 0.00 0.00 16 1013.7
20260507001552 64 313 15.0 0.0 0.00 0.00 0.00 17 1013.7
20260507000051 64 334 13.0 0.0 0.00 0.00 0.00 17 1013.4
20260506234558 64 347 5.0 0.0 0.00 0.00 0.00 17 1013.4
20260506233052 65 5 13.0 0.0 0.00 0.00 0.00 16 1013.4
20260506231554 64 337 16.0 0.0 0.00 0.00 0.00 16 1013.2
20260506230048 64 305 15.0 0.0 0.00 0.00 0.00 17 1013.2
20260506224547 64 327 14.0 0.0 0.00 0.00 0.00 17 1013.2
20260506223046 64 325 9.0 0.0 0.00 0.00 0.00 18 1013.1
20260506221547 64 15 17.0 0.0 0.00 0.00 0.00 17 1013.1
20260506220050 63 355 11.0 0.0 0.00 0.00 0.00 18 1013.1
20260506214547 63 360 12.0 0.0 0.00 0.00 0.00 18 1013.1
20260506213045 64 346 12.0 0.0 0.00 0.00 0.00 21 1013.3
20260506211540 63 355 9.0 0.0 0.00 0.00 0.00 21 1013.0
20260506210038 62 360 8.0 0.0 0.00 0.00 0.00 22 1013.1
20260506204542 62 5 11.0 0.0 0.00 0.00 0.00 21 1013.3
20260506203040 63 360 10.0 0.0 0.00 0.00 0.00 22 1013.1
20260506201539 62 340 8.0 0.0 0.00 0.00 0.00 24 1013.1
20260506200039 61 14 9.0 0.0 0.00 0.00 0.00 24 1013.4
20260506194532 61 355 14.0 0.0 0.00 0.00 0.00 24 1013.4
20260506193028 60 348 15.0 0.0 0.00 0.00 0.00 25 1013.2
20260506191526 59 348 10.0 0.0 0.00 0.00 0.00 27 1013.1
20260506190021 58 67 9.0 0.0 0.00 0.00 0.00 37 1013.2
20260506184519 57 65 4.0 0.0 0.00 0.00 0.00 39 1013.5
20260506183014 55 65 3.0 0.0 0.00 0.00 0.00 48 1013.7
20260506181512 55 65 3.0 0.0 0.00 0.00 0.00 49 1013.6
20260506180013 54 57 1.0 0.0 0.00 0.00 0.00 52 1013.5
20260506174505 52 56 4.0 0.0 0.00 0.00 0.00 54 1013.2
20260506173003 51 53 6.0 0.0 0.00 0.00 0.00 58 1013.1
20260506171502 51 52 9.0 0.0 0.00 0.00 0.00 59 1013.0
20260506170100 52 52 5.0 0.0 0.00 0.00 0.00 59 1012.7
20260506164606 51 360 6.0 0.0 0.00 0.00 0.00 62 1012.4
20260506163105 50 11 7.0 0.0 0.00 0.00 0.00 65 1012.2
20260506161627 49 24 9.0 0.0 0.00 0.00 0.00 67 1012.2
20260506160053 48 55 10.0 0.0 0.00 0.00 0.00 70 1012.0
20260506154553 47 360 16.0 0.0 0.00 0.00 0.00 70 1011.9
20260506153056 48 52 14.0 0.0 0.00 0.00 0.00 74 1011.6
20260506151549 48 46 12.0 0.0 0.00 0.00 0.00 73 1011.3
20260506150045 47 57 11.0 0.0 0.00 0.00 0.00 72 1011.2
20260506144543 47 280 5.0 0.0 0.00 0.00 0.00 70 1011.1
20260506143043 47 323 2.0 0.0 0.00 0.00 0.00 67 1010.8
20260506141538 46 323 4.0 0.0 0.00 0.00 0.00 66 1010.5
20260506140032 46 288 7.0 0.0 0.00 0.00 0.00 65 1010.3
20260506134529 48 257 4.0 0.0 0.00 0.00 0.00 66 1009.9
20260506133024 46 267 4.0 0.0 0.00 0.00 0.00 70 1009.7
20260506131530 45 267 6.0 0.0 0.00 0.00 0.00 68 1009.2
20260506130021 44 269 6.0 0.0 0.00 0.00 0.00 69 1009.1
20260506124518 43 270 6.0 0.0 0.00 0.00 0.00 69 1008.8
20260506123014 45 266 3.0 0.0 0.00 0.00 0.00 68 1008.3
20260506121513 45 282 2.0 0.0 0.00 0.00 0.00 64 1008.2
20260506120017 46 9 3.0 0.0 0.00 0.00 0.00 63 1008.2
20260506114509 46 9 1.0 0.0 0.00 0.00 0.00 61 1007.9
20260506113009 46 9 1.0 0.0 0.00 0.00 0.00 62 1007.9
20260506111508 47 11 5.0 0.0 0.00 0.00 0.00 63 1008.1
20260506110006 46 26 7.0 0.0 0.00 0.00 0.00 60 1008.0
20260506104504 47 23 12.0 0.0 0.00 0.00 0.00 54 1008.0
20260506103002 50 347 4.0 0.0 0.00 0.00 0.00 49 1007.8
20260506101620 51 301 8.0 0.0 0.00 0.00 0.00 54 1007.6
20260506100118 50 296 4.0 0.0 0.00 0.00 0.00 51 1007.2
20260506094553 49 273 8.0 0.0 0.00 0.00 0.00 47 1007.2
20260506093051 48 300 5.0 0.0 0.00 0.00 0.00 49 1006.6
20260506091551 47 236 7.0 0.0 0.00 0.00 0.00 50 1006.2
20260506090049 46 317 3.0 0.0 0.00 0.00 0.00 51 1006.5
20260506084611 46 325 4.0 0.0 0.00 0.00 0.00 52 1006.1
20260506083046 45 281 3.0 0.0 0.00 0.00 0.00 53 1005.9
20260506081551 45 264 2.0 0.0 0.00 0.00 0.00 53 1006.1
20260506073045 47 252 13.0 0.0 0.00 0.00 0.00 50 1006.0
20260506071538 47 260 12.0 0.0 0.00 0.00 0.00 50 1005.8
20260506061527 47 227 4.0 0.0 0.00 0.00 0.00 50 1005.4
20260506044548 50 296 5.0 0.0 0.00 0.00 0.00 47 1004.9
20260506043017 50 301 6.0 0.0 0.00 0.00 0.00 47 1004.7
20260506041517 51 291 6.0 0.0 0.00 0.00 0.00 46 1004.7
20260506040015 52 271 5.0 0.0 0.00 0.00 0.00 45 1004.5
20260506034534 52 274 5.0 0.0 0.00 0.00 0.00 45 1004.4
20260506033011 53 28 6.0 0.0 0.00 0.00 0.00 44 1004.1
20260506031510 53 28 7.0 0.0 0.00 0.00 0.00 45 1003.8
20260506030009 54 25 4.0 0.0 0.00 0.00 0.00 45 1003.7
20260506024509 54 28 3.0 0.0 0.00 0.00 0.00 45 1003.7
20260506023009 55 27 9.0 0.0 0.00 0.00 0.00 43 1003.8
20260506021507 54 15 12.0 0.0 0.00 0.00 0.00 43 1003.6
20260506020005 55 300 22.0 0.0 0.00 0.00 0.00 43 1003.0